McCook, NE

3:31 AM CST on November 18, 2019 (GMT -0600)
McCook Municipal

Weather History for KMCK - September, 2019

Change the Weather History Date:

Thursday, September 19, 2019

  Actual Average Record
Temperature  
Mean Temperature 74 °F 63 °F  
Max Temperature 95 °F 78 °F 99 °F (1972)
Min Temperature 54 °F 48 °F 31 °F (2003)
Cooling Degree Days 10    
Growing Degree Days 24 (Base 50)    
Moisture  
Dew Point 59 °F    
Average Humidity 64    
Maximum Humidity 97    
Minimum Humidity 35    
Precipitation  
Precipitation 0.00 in 0.05 in 1.02 in (1967)
Month to date precipitation 0.51 0.92  
Year to date precipitation 17.84 18.63  
Sea Level Pressure  
Sea Level Pressure 29.86 in    
Wind  
Wind Speed 8 mph ()    
Max Wind Speed 26 mph    
Max Gust Speed 41 mph    
Visibility 9.8 miles    
Events Thunderstorm    
T = Trace of Precipitation, MM = Missing Value Source: Averaged Metar Reports

Daily Weather History Graph

Daily Weather History Graph

Search for Another Location

Airport or City:

Astronomy

Sep. 19, 2019 Rise Set
Actual Time 7:26 AM CDT 7:44 PM CDT
Civil Twilight 6:59 AM CDT 8:11 PM CDT
Nautical Twilight 6:27 AM CDT 8:43 PM CDT
Astronomical Twilight 5:55 AM CDT 9:16 PM CDT
Moon 10:54 PM CDT (9/19) 12:32 PM CDT (9/19)
Length of Visible Light 13h 12m
Length of Day
12h 17m
Waning Gibbous, 74% of the Moon is Illuminated
Sep 19
Waning Gibbous
Sep 21
Last Quarter
Sep 28
New
Oct 5
First Quarter
Oct 13
Full

Hourly Weather History & Observations

Time (CDT) Temp. Heat Index Dew Point Humidity Pressure Visibility Wind Dir Wind Speed Gust Speed Precip Events Conditions
12:53 AM 63.0 °F - 55.0 °F 75% 29.91 in 10.0 mi North 4.6 mph - N/A   Clear
1:53 AM 60.1 °F - 55.0 °F 83% 29.90 in 10.0 mi West 3.5 mph - N/A   Clear
2:53 AM 57.0 °F - 55.0 °F 93% 29.90 in 10.0 mi WSW 4.6 mph - N/A   Clear
3:53 AM 57.9 °F - 55.0 °F 90% 29.89 in 10.0 mi NW 8.1 mph - N/A   Clear
4:53 AM 55.0 °F - 53.1 °F 93% 29.90 in 10.0 mi WSW 4.6 mph - N/A   Clear
5:53 AM 55.9 °F - 53.1 °F 90% 29.89 in 10.0 mi Calm Calm - N/A   Clear
6:53 AM 54.0 °F - 53.1 °F 97% 29.90 in 10.0 mi Calm Calm - N/A   Clear
7:53 AM 55.0 °F - 53.1 °F 93% 29.92 in 6.0 mi East 5.8 mph - N/A   Clear
8:53 AM 61.0 °F - 57.0 °F 87% 29.92 in 10.0 mi East 6.9 mph - N/A   Clear
9:05 AM 63.0 °F - 57.9 °F 84% 29.96 in 9.0 mi East 6.9 mph - N/A Thunderstorm Clear
9:20 AM 63.0 °F - 57.0 °F 81% 29.95 in 8.0 mi ESE 8.1 mph - N/A   Clear
9:53 AM 66.0 °F - 60.1 °F 81% 29.91 in 10.0 mi ESE 6.9 mph - N/A   Clear
10:53 AM 73.0 °F - 62.1 °F 68% 29.90 in 10.0 mi South 12.7 mph - N/A   Clear
11:53 AM 78.1 °F - 63.0 °F 60% 29.88 in 10.0 mi SSE 10.4 mph - N/A   Clear
12:53 PM 84.0 °F 84.4 °F 61.0 °F 46% 29.86 in 10.0 mi South 12.7 mph - N/A   Clear
1:53 PM 88.0 °F 89.3 °F 64.0 °F 45% 29.84 in 10.0 mi SSE 10.4 mph 20.7 mph N/A   Clear
2:53 PM 91.0 °F 93.0 °F 64.9 °F 42% 29.81 in 10.0 mi SSE 9.2 mph 21.9 mph N/A   Clear
3:53 PM 91.0 °F 91.9 °F 63.0 °F 39% 29.79 in 10.0 mi South 15.0 mph 24.2 mph N/A   Clear
4:53 PM 91.9 °F 91.8 °F 61.0 °F 35% 29.76 in 10.0 mi SSE 19.6 mph 29.9 mph N/A   Partly Cloudy
5:53 PM 91.0 °F 90.9 °F 61.0 °F 36% 29.75 in 10.0 mi SE 20.7 mph 34.5 mph N/A   Mostly Cloudy
6:23 PM 89.1 °F 89.3 °F 62.1 °F 40% 29.82 in 10.0 mi SSE 23.0 mph 39.1 mph N/A Thunderstorm Partly Cloudy
6:38 PM 88.0 °F 88.4 °F 62.1 °F 42% 29.81 in 10.0 mi SSE 24.2 mph 35.7 mph N/A   Partly Cloudy
6:53 PM 87.1 °F 87.5 °F 62.1 °F 43% 29.76 in 10.0 mi SSE 26.5 mph 41.4 mph N/A   Clear
7:53 PM 84.0 °F 84.9 °F 63.0 °F 49% 29.79 in 10.0 mi SSE 20.7 mph 32.2 mph N/A   Clear
8:53 PM 82.0 °F 83.0 °F 62.1 °F 51% 29.80 in 10.0 mi SSE 17.3 mph 35.7 mph N/A   Clear
9:53 PM 79.0 °F - 61.0 °F 54% 29.83 in 10.0 mi SSE 12.7 mph 24.2 mph N/A   Clear
10:53 PM 78.1 °F - 62.1 °F 58% 29.81 in 10.0 mi SE 13.8 mph - N/A   Clear
11:53 PM 75.9 °F - 55.9 °F 50% 29.82 in 10.0 mi East 5.8 mph - N/A   Clear